loading
|
Showing default

COSMOS 84, 1574

Orbit data source: Space-Track

COSMOS 84, 1574 is a payload satellite owned by OKB-10 (CIS) in LEO that was launched on Fri, 03 Sep 1965 UTC via a KOSMOS 65S3 launch vehicle from the Tyuratam Missile And Space Complex (TTMTR). Payloads include a variety of satellites, spacecraft, and rockets equipped with specific instruments for various scientific and technological missions. These include communications satellites like Starlink; space stations such as the ISS; scientific satellites like the Hubble; Earth observation satellites from companies like Planet Labs, Umbra, and HawkEye 360; GPS; miniature CubeSats for education and research; and military/defense satellites.

Loading next visibility...
Next conjunction unknown
Loading greatness...
COSMOS 84 details
Identifier
1574, 1965-070E
Orbit
LEO
Last TLE update16 hours ago
Origin
Flag of CISOKB-10 (CIS)
ManufacturerOKB-10
MissionDefense Communications
Bus & MotorSTRELA-1 11F610, Unknown motor
Mass50 kg wet, 50 kg dry
Launch date (UTC)
1965-09-03 (59 years ago)
Launch vehicle
KOSMOS 65S3
Launch site
Tyuratam Missile And Space Complex (TTMTR)
Object type
Payload
Rocket body
Debris
Shape & HBRPoly, 0.8 m
Radar Cross Section0.731 m², Medium (>0.1 m² and < 1m²)

Expand to show TLE details & history

TLE from 16 hours ago
0 COSMOS 84
1 01574U 65070E   24285.36311722 -.00000051  00000-0  31935-3 0  9992
2 01574  56.0521 243.4313 0064799 145.8984  14.2027 12.37026841670476
Epoch: 2024-10-11T08:42Z
Definitive object data (Epoch: 2024-10-11T08:42:53.327Z)
Latitude16.26472°
Longitude-98.99562°
Altitude1,470.054 km
Speed7.152 km/s
True Right ascension03h 28m 38s
True Declination16° 10' 51"
Sunlit
Object was in full shadow at TLE epoch
Predictive object data (real-time)
Latitude-48.86372°
Longitude40.40935°
Altitude1,579.87 km
Speed7.059 km/s
Apparent Right ascension10h 10m 28s
Apparent Declination-52° 30' 43"
Sunlit
Object is in daylight
Predictive observer data (real-time)
Local Sidereal Time19:21:19
Azimuth232.021° WSW
Elevation-58.701°
Doppler factor1
Orbital elements
Apogee1,570.23 km
Perigee1,467.884 km
Semi-major axis7,897.194 km
Eccentricity0.0064799
Inclination56.0521°
RAAN243.4313°
Arg. of periapsis145.8984°
True anomaly14.38633°
Mean anomaly14.2027°
Eccentric anomaly14.29437°
Mean motion3.09267 °/min
BSTAR0.00031935
Period116.4 mins
No data available
No data available

COSMOS 84 Visibility forecast

Observer location: 39.9160978°, -105.1181434

Span
Click to sort rows by Start time (UTC) header in descending order
Start Az.
Max El. time (UTC)
Max El. Az.
Max El.
End time (UTC)
End Az.
16 mins2024-10-12 01:32:23.360Z265.97° W2024-10-12 01:40:23.360Z336.31° NNW33.872°2024-10-12 01:48:23.360Z41.57° NE
13 mins2024-10-12 03:38:23.360Z311.003° NW2024-10-12 03:44:23.360Z0.79° NNE25.337°2024-10-12 03:51:23.360Z55.564° ENE
15 mins2024-10-12 05:41:23.360Z322.23° NNW2024-10-12 05:48:23.360Z26.564° NE34.501°2024-10-12 05:56:23.360Z97.113° ESE
16 mins2024-10-12 07:43:23.360Z309.547° NW2024-10-12 07:50:23.360Z243.57° WSW43.022°2024-10-12 07:59:23.360Z149.742° SSE
6 mins2024-10-12 09:48:23.360Z266.396° W2024-10-12 09:51:23.360Z244.275° WSW14.335°2024-10-12 09:54:23.360Z223.032° SW
16 mins2024-10-12 22:45:23.360Z197.42° SSW2024-10-12 22:53:23.360Z119.186° SE39.174°2024-10-12 23:01:23.360Z52.947° ENE
10 mins2024-10-13 00:47:23.360Z254.634° W2024-10-13 00:55:23.360Z335.882° NNW38.112°2024-10-13 00:57:23.360Z8.752° NNE